Torna al catalogo

THORAD DELTA 1 DEB

AttivoSSO
NORAD 8157·DEBRIS·🇺🇸 United States

Lanciato Nov 15, 1974 da Vandenberg Space Force Base

Loading…

Prossimi Passaggi (prossime 24 ore)

TLE

AggiornatoSource: Space-Track

Epoca: Sep 14, 2026, 12:09 UTC

1 08157U 74089X   26257.50684812 -.00000015  00000-0  20293-3 0  9991
2 08157 102.1428 264.3788 0133969  19.9251 134.2121 12.47545194358986

Traccia THORAD DELTA 1 DEB in tempo reale con AllMySat

Download on the App Store